Time,TemperatureF,DewpointF,PressureIn,WindDirection,WindDirectionDegrees,WindSpeedMPH,WindSpeedGustMPH,Humidity,HourlyPrecipIn,Conditions,Clouds,dailyrainin,SoftwareType,DateUTC
2013-01-08 00:04:00,20.0,17.0,30.22,NW,309,4.0,-999.0,89,-99.99,,,-99.99,,2013-01-08 05:04:00,
2013-01-08 00:12:00,20.0,17.0,30.22,NW,309,4.0,-999.0,89,-99.99,,,-99.99,,2013-01-08 05:12:00,
2013-01-08 00:22:00,25.0,20.0,30.22,NW,309,9.0,-999.0,82,-99.99,,,-99.99,,2013-01-08 05:22:00,
2013-01-08 00:33:00,28.0,21.0,30.21,NW,308,10.0,-999.0,76,-99.99,,,-99.99,,2013-01-08 05:33:00,
2013-01-08 00:42:00,28.0,21.0,30.21,NW,308,10.0,-999.0,76,-99.99,,,-99.99,,2013-01-08 05:42:00,
2013-01-08 00:53:00,29.0,22.0,30.19,NW,308,13.0,-999.0,74,-99.99,,,-99.99,,2013-01-08 05:53:00,
2013-01-08 01:02:00,30.0,23.0,30.18,WNW,294,15.0,-999.0,75,-99.99,,,-99.99,,2013-01-08 06:02:00,
2013-01-08 01:12:00,30.0,23.0,30.18,WNW,294,15.0,-999.0,75,-99.99,,,-99.99,,2013-01-08 06:12:00,
2013-01-08 01:22:00,31.0,24.0,30.18,WNW,292,14.0,-999.0,74,-99.99,,,-99.99,,2013-01-08 06:22:00,
2013-01-08 01:33:00,31.0,24.0,30.17,WNW,285,14.0,-999.0,76,-99.99,,,-99.99,,2013-01-08 06:33:00,
2013-01-08 01:42:00,31.0,24.0,30.17,WNW,285,14.0,-999.0,76,-99.99,,,-99.99,,2013-01-08 06:42:00,
2013-01-08 01:52:00,32.0,25.0,30.16,West,277,15.0,-999.0,75,-99.99,,,-99.99,,2013-01-08 06:52:00,
2013-01-08 02:02:00,32.0,26.0,30.16,West,271,16.0,-999.0,77,-99.99,,,-99.99,,2013-01-08 07:02:00,
2013-01-08 02:12:00,32.0,26.0,30.16,West,271,16.0,-999.0,77,-99.99,,,-99.99,,2013-01-08 07:12:00,
2013-01-08 02:22:00,33.0,27.0,30.16,SW,230,16.0,-999.0,77,-99.99,,,-99.99,,2013-01-08 07:22:00,
2013-01-08 02:32:00,34.0,28.0,30.15,SSW,206,14.0,-999.0,78,-99.99,,,-99.99,,2013-01-08 07:32:00,
2013-01-08 02:42:00,34.0,28.0,30.15,SSW,206,14.0,-999.0,78,-99.99,,,-99.99,,2013-01-08 07:42:00,
2013-01-08 02:52:00,34.0,28.0,30.14,SSW,196,16.0,-999.0,78,-99.99,,,-99.99,,2013-01-08 07:52:00,
2013-01-08 03:02:00,34.0,28.0,30.13,SW,226,14.0,-999.0,78,-99.99,,,-99.99,,2013-01-08 08:02:00,
2013-01-08 03:12:00,34.0,28.0,30.13,SW,226,14.0,-999.0,78,-99.99,,,-99.99,,2013-01-08 08:12:00,
2013-01-08 03:22:00,35.0,29.0,30.12,SSW,210,14.0,-999.0,78,-99.99,,,-99.99,,2013-01-08 08:22:00,
2013-01-08 03:32:00,35.0,29.0,30.12,SSW,210,14.0,-999.0,78,-99.99,,,-99.99,,2013-01-08 08:32:00,
2013-01-08 03:42:00,35.0,29.0,30.12,SSW,210,14.0,-999.0,78,-99.99,,,-99.99,,2013-01-08 08:42:00,
2013-01-08 03:53:00,36.0,29.0,30.11,SW,223,13.0,-999.0,75,-99.99,,,-99.99,,2013-01-08 08:53:00,
2013-01-08 04:02:00,36.0,28.0,30.09,WSW,237,13.0,-999.0,73,-99.99,,,-99.99,,2013-01-08 09:02:00,
2013-01-08 04:12:00,36.0,28.0,30.09,WSW,237,13.0,-999.0,73,-99.99,,,-99.99,,2013-01-08 09:12:00,
2013-01-08 04:22:00,37.0,29.0,30.09,SW,236,13.0,-999.0,72,-99.99,,,-99.99,,2013-01-08 09:22:00,
2013-01-08 04:33:00,37.0,28.0,30.09,SW,232,13.0,-999.0,70,-99.99,,,-99.99,,2013-01-08 09:33:00,
2013-01-08 04:42:00,37.0,28.0,30.09,SW,232,13.0,-999.0,70,-99.99,,,-99.99,,2013-01-08 09:42:00,
2013-01-08 04:52:00,37.0,29.0,30.08,SW,230,14.0,-999.0,72,-99.99,,,-99.99,,2013-01-08 09:52:00,
2013-01-08 05:02:00,37.0,28.0,30.07,SSW,209,14.0,-999.0,71,-99.99,,,-99.99,,2013-01-08 10:02:00,
2013-01-08 05:12:00,37.0,28.0,30.07,SSW,209,14.0,-999.0,71,-99.99,,,-99.99,,2013-01-08 10:12:00,
2013-01-08 05:22:00,37.0,28.0,30.07,SW,219,15.0,-999.0,70,-99.99,,,-99.99,,2013-01-08 10:22:00,
2013-01-08 05:32:00,38.0,29.0,30.06,SSW,199,16.0,-999.0,71,-99.99,,,-99.99,,2013-01-08 10:32:00,
2013-01-08 05:42:00,38.0,29.0,30.06,SSW,199,16.0,-999.0,71,-99.99,,,-99.99,,2013-01-08 10:42:00,
2013-01-08 05:53:00,38.0,29.0,30.06,SW,233,13.0,-999.0,71,-99.99,,,-99.99,,2013-01-08 10:53:00,
2013-01-08 06:02:00,38.0,30.0,30.06,SSW,206,13.0,-999.0,72,-99.99,,,-99.99,,2013-01-08 11:02:00,
2013-01-08 06:12:00,38.0,30.0,30.06,SSW,206,13.0,-999.0,72,-99.99,,,-99.99,,2013-01-08 11:12:00,
2013-01-08 06:22:00,39.0,31.0,30.06,SSW,209,14.0,-999.0,72,-99.99,,,-99.99,,2013-01-08 11:22:00,
2013-01-08 06:33:00,39.0,30.0,30.05,WSW,253,14.0,-999.0,71,-99.99,,,-99.99,,2013-01-08 11:33:00,
2013-01-08 06:42:00,39.0,30.0,30.05,WSW,253,14.0,-999.0,71,-99.99,,,-99.99,,2013-01-08 11:42:00,
2013-01-08 06:53:00,39.0,30.0,30.05,SSW,205,15.0,-999.0,70,-99.99,,,-99.99,,2013-01-08 11:53:00,
2013-01-08 07:03:00,39.0,30.0,30.05,WSW,237,13.0,-999.0,71,-99.99,,,-99.99,,2013-01-08 12:03:00,
2013-01-08 07:12:00,39.0,30.0,30.05,WSW,237,13.0,-999.0,71,-99.99,,,-99.99,,2013-01-08 12:12:00,
2013-01-08 07:22:00,39.0,30.0,30.06,SW,227,13.0,-999.0,69,-99.99,,,-99.99,,2013-01-08 12:22:00,
2013-01-08 07:33:00,39.0,30.0,30.05,WSW,246,13.0,-999.0,69,-99.99,,,-99.99,,2013-01-08 12:33:00,
2013-01-08 07:42:00,39.0,30.0,30.05,WSW,246,13.0,-999.0,69,-99.99,,,-99.99,,2013-01-08 12:42:00,
2013-01-08 07:53:00,40.0,30.0,30.06,SSW,212,15.0,-999.0,67,-99.99,,,-99.99,,2013-01-08 12:53:00,
2013-01-08 08:03:00,40.0,31.0,30.06,SW,236,14.0,-999.0,69,-99.99,,,-99.99,,2013-01-08 13:03:00,
2013-01-08 08:12:00,40.0,31.0,30.06,SW,236,14.0,-999.0,69,-99.99,,,-99.99,,2013-01-08 13:12:00,
2013-01-08 08:22:00,40.0,31.0,30.06,WSW,258,13.0,-999.0,69,-99.99,,,-99.99,,2013-01-08 13:22:00,
2013-01-08 08:33:00,40.0,31.0,30.06,WSW,247,12.0,-999.0,70,-99.99,,,-99.99,,2013-01-08 13:33:00,
2013-01-08 08:43:00,40.0,31.0,30.06,WSW,247,12.0,-999.0,70,-99.99,,,-99.99,,2013-01-08 13:43:00,
2013-01-08 08:52:00,41.0,32.0,30.06,SW,217,12.0,-999.0,71,-99.99,,,-99.99,,2013-01-08 13:52:00,
2013-01-08 09:03:00,41.0,33.0,30.06,WNW,285,10.0,-999.0,72,-99.99,,,-99.99,,2013-01-08 14:03:00,
2013-01-08 09:13:00,41.0,33.0,30.06,WNW,285,10.0,-999.0,72,-99.99,,,-99.99,,2013-01-08 14:13:00,
2013-01-08 09:23:00,41.0,33.0,30.06,West,265,11.0,-999.0,72,-99.99,,,-99.99,,2013-01-08 14:23:00,
2013-01-08 09:33:00,41.0,33.0,30.06,West,260,11.0,-999.0,72,-99.99,,,-99.99,,2013-01-08 14:33:00,
2013-01-08 09:43:00,41.0,33.0,30.06,West,260,11.0,-999.0,72,-99.99,,,-99.99,,2013-01-08 14:43:00,
2013-01-08 09:53:00,41.0,32.0,30.06,WNW,282,12.0,-999.0,71,-99.99,,,-99.99,,2013-01-08 14:53:00,
2013-01-08 10:03:00,41.0,32.0,30.06,WNW,282,12.0,-999.0,71,-99.99,,,-99.99,,2013-01-08 15:03:00,
2013-01-08 10:12:00,41.0,32.0,30.06,WNW,282,12.0,-999.0,71,-99.99,,,-99.99,,2013-01-08 15:12:00,
2013-01-08 10:22:00,41.0,33.0,30.05,West,280,13.0,-999.0,72,-99.99,,,-99.99,,2013-01-08 15:22:00,
2013-01-08 10:33:00,42.0,34.0,30.05,West,281,11.0,-999.0,72,-99.99,,,-99.99,,2013-01-08 15:33:00,
2013-01-08 10:43:00,42.0,34.0,30.05,West,281,11.0,-999.0,72,-99.99,,,-99.99,,2013-01-08 15:43:00,
2013-01-08 10:53:00,42.0,33.0,30.05,WNW,296,13.0,-999.0,71,-99.99,,,-99.99,,2013-01-08 15:53:00,
2013-01-08 11:03:00,42.0,33.0,30.05,WSW,254,11.0,-999.0,71,-99.99,,,-99.99,,2013-01-08 16:03:00,
2013-01-08 11:13:00,42.0,33.0,30.05,WSW,254,11.0,-999.0,71,-99.99,,,-99.99,,2013-01-08 16:13:00,
2013-01-08 11:23:00,42.0,33.0,30.04,SW,219,11.0,-999.0,71,-99.99,,,-99.99,,2013-01-08 16:23:00,
2013-01-08 11:34:00,42.0,33.0,30.04,WSW,243,9.0,-999.0,70,-99.99,,,-99.99,,2013-01-08 16:34:00,
2013-01-08 11:43:00,42.0,33.0,30.04,WSW,243,9.0,-999.0,70,-99.99,,,-99.99,,2013-01-08 16:43:00,
2013-01-08 11:53:00,41.0,32.0,30.03,West,274,9.0,-999.0,71,-99.99,,,-99.99,,2013-01-08 16:53:00,
2013-01-08 12:03:00,41.0,32.0,30.02,West,263,9.0,-999.0,70,-99.99,,,-99.99,,2013-01-08 17:03:00,
2013-01-08 12:13:00,41.0,32.0,30.02,West,263,9.0,-999.0,70,-99.99,,,-99.99,,2013-01-08 17:13:00,
2013-01-08 12:23:00,42.0,32.0,30.02,SW,229,12.0,-999.0,68,-99.99,,,-99.99,,2013-01-08 17:23:00,
2013-01-08 12:34:00,41.0,32.0,30.01,WSW,251,9.0,-999.0,69,-99.99,,,-99.99,,2013-01-08 17:34:00,
2013-01-08 12:43:00,41.0,32.0,30.01,WSW,251,9.0,-999.0,69,-99.99,,,-99.99,,2013-01-08 17:43:00,
2013-01-08 12:54:00,41.0,31.0,30.01,West,265,7.0,-999.0,68,-99.99,,,-99.99,,2013-01-08 17:54:00,
2013-01-08 13:03:00,41.0,31.0,30.01,SW,229,6.0,-999.0,68,-99.99,,,-99.99,,2013-01-08 18:03:00,
2013-01-08 13:13:00,41.0,31.0,30.01,SW,229,6.0,-999.0,68,-99.99,,,-99.99,,2013-01-08 18:13:00,
2013-01-08 13:23:00,41.0,31.0,30.01,SW,230,7.0,-999.0,67,-99.99,,,-99.99,,2013-01-08 18:23:00,
2013-01-08 13:33:00,40.0,30.0,30.01,WNW,302,5.0,-999.0,67,-99.99,,,-99.99,,2013-01-08 18:33:00,
2013-01-08 13:43:00,40.0,30.0,30.01,WNW,302,5.0,-999.0,67,-99.99,,,-99.99,,2013-01-08 18:43:00,
2013-01-08 13:53:00,40.0,29.0,30.02,West,261,2.0,-999.0,65,-99.99,,,-99.99,,2013-01-08 18:53:00,
2013-01-08 14:03:00,40.0,30.0,30.02,West,274,3.0,-999.0,67,-99.99,,,-99.99,,2013-01-08 19:03:00,
2013-01-08 14:12:00,40.0,30.0,30.02,West,274,3.0,-999.0,67,-99.99,,,-99.99,,2013-01-08 19:12:00,
2013-01-08 14:23:00,40.0,30.0,30.02,West,261,2.0,-999.0,68,-99.99,,,-99.99,,2013-01-08 19:23:00,
2013-01-08 14:33:00,39.0,29.0,30.03,NW,311,2.0,-999.0,66,-99.99,,,-99.99,,2013-01-08 19:33:00,
2013-01-08 14:42:00,39.0,29.0,30.03,NW,311,2.0,-999.0,66,-99.99,,,-99.99,,2013-01-08 19:42:00,
2013-01-08 14:53:00,39.0,28.0,30.03,WNW,282,1.0,-999.0,64,-99.99,,,-99.99,,2013-01-08 19:53:00,
2013-01-08 15:03:00,39.0,28.0,30.04,West,277,0.0,-999.0,64,-99.99,,,-99.99,,2013-01-08 20:03:00,
2013-01-08 15:12:00,39.0,28.0,30.04,West,277,0.0,-999.0,64,-99.99,,,-99.99,,2013-01-08 20:12:00,
2013-01-08 15:23:00,39.0,27.0,30.04,WNW,288,0.0,-999.0,63,-99.99,,,-99.99,,2013-01-08 20:23:00,
2013-01-08 15:33:00,38.0,26.0,30.05,West,275,0.0,-999.0,62,-99.99,,,-99.99,,2013-01-08 20:33:00,
2013-01-08 15:43:00,38.0,26.0,30.05,West,275,0.0,-999.0,62,-99.99,,,-99.99,,2013-01-08 20:43:00,
2013-01-08 15:53:00,38.0,26.0,30.05,West,281,0.0,-999.0,62,-99.99,,,-99.99,,2013-01-08 20:53:00,
2013-01-08 16:03:00,37.0,26.0,30.05,WNW,287,0.0,-999.0,63,-99.99,,,-99.99,,2013-01-08 21:03:00,
2013-01-08 16:13:00,37.0,26.0,30.05,WNW,287,0.0,-999.0,63,-99.99,,,-99.99,,2013-01-08 21:13:00,
2013-01-08 16:23:00,36.0,25.0,30.06,WNW,292,0.0,-999.0,64,-99.99,,,-99.99,,2013-01-08 21:23:00,
2013-01-08 16:33:00,35.0,26.0,30.08,West,280,0.0,-999.0,68,-99.99,,,-99.99,,2013-01-08 21:33:00,
2013-01-08 16:43:00,35.0,26.0,30.08,West,280,0.0,-999.0,68,-99.99,,,-99.99,,2013-01-08 21:43:00,
2013-01-08 16:53:00,34.0,26.0,30.08,West,280,0.0,-999.0,71,-99.99,,,-99.99,,2013-01-08 21:53:00,
2013-01-08 17:03:00,33.0,25.0,30.08,West,280,0.0,-999.0,72,-99.99,,,-99.99,,2013-01-08 22:03:00,
2013-01-08 17:12:00,33.0,25.0,30.08,West,280,0.0,-999.0,72,-99.99,,,-99.99,,2013-01-08 22:12:00,
2013-01-08 17:23:00,34.0,26.0,30.08,West,264,0.0,-999.0,72,-99.99,,,-99.99,,2013-01-08 22:23:00,
2013-01-08 17:33:00,33.0,25.0,30.09,West,281,0.0,-999.0,72,-99.99,,,-99.99,,2013-01-08 22:33:00,
2013-01-08 17:43:00,33.0,25.0,30.09,West,281,0.0,-999.0,72,-99.99,,,-99.99,,2013-01-08 22:43:00,
2013-01-08 17:53:00,33.0,26.0,30.10,West,268,0.0,-999.0,74,-99.99,,,-99.99,,2013-01-08 22:53:00,
2013-01-08 18:03:00,34.0,27.0,30.10,WSW,248,0.0,-999.0,74,-99.99,,,-99.99,,2013-01-08 23:03:00,
2013-01-08 18:13:00,34.0,27.0,30.10,WSW,248,0.0,-999.0,74,-99.99,,,-99.99,,2013-01-08 23:13:00,
2013-01-08 18:22:00,33.0,26.0,30.11,West,268,0.0,-999.0,75,-99.99,,,-99.99,,2013-01-08 23:22:00,
2013-01-08 18:33:00,33.0,26.0,30.11,West,268,0.0,-999.0,75,-99.99,,,-99.99,,2013-01-08 23:33:00,
2013-01-08 18:43:00,33.0,26.0,30.11,West,268,0.0,-999.0,75,-99.99,,,-99.99,,2013-01-08 23:43:00,
2013-01-08 18:53:00,32.0,25.0,30.12,WNW,298,0.0,-999.0,76,-99.99,,,-99.99,,2013-01-08 23:53:00,
2013-01-08 19:03:00,32.0,25.0,30.12,NW,305,0.0,-999.0,75,-99.99,,,-99.99,,2013-01-09 00:03:00,
2013-01-08 19:12:00,32.0,25.0,30.12,NW,305,0.0,-999.0,75,-99.99,,,-99.99,,2013-01-09 00:12:00,
2013-01-08 19:22:00,32.0,25.0,30.13,NW,309,0.0,-999.0,75,-99.99,,,-99.99,,2013-01-09 00:22:00,
2013-01-08 19:33:00,31.0,24.0,30.14,NNW,335,1.0,-999.0,76,-99.99,,,-99.99,,2013-01-09 00:33:00,
2013-01-08 19:43:00,31.0,24.0,30.14,NNW,335,1.0,-999.0,76,-99.99,,,-99.99,,2013-01-09 00:43:00,
2013-01-08 19:53:00,32.0,24.0,30.14,NW,326,3.0,-999.0,72,-99.99,,,-99.99,,2013-01-09 00:53:00,
2013-01-08 20:02:00,32.0,23.0,30.14,NW,305,4.0,-999.0,69,-99.99,,,-99.99,,2013-01-09 01:02:00,
2013-01-08 20:12:00,32.0,23.0,30.14,NW,305,4.0,-999.0,69,-99.99,,,-99.99,,2013-01-09 01:12:00,
2013-01-08 20:22:00,33.0,23.0,30.14,NW,311,2.0,-999.0,66,-99.99,,,-99.99,,2013-01-09 01:22:00,
2013-01-08 20:33:00,33.0,23.0,30.14,WNW,302,3.0,-999.0,65,-99.99,,,-99.99,,2013-01-09 01:33:00,
2013-01-08 20:42:00,33.0,23.0,30.14,WNW,302,3.0,-999.0,65,-99.99,,,-99.99,,2013-01-09 01:42:00,
2013-01-08 20:52:00,33.0,23.0,30.16,NW,316,0.0,-999.0,65,-99.99,,,-99.99,,2013-01-09 01:52:00,
2013-01-08 21:02:00,32.0,22.0,30.16,NW,316,0.0,-999.0,65,-99.99,,,-99.99,,2013-01-09 02:02:00,
2013-01-08 21:12:00,32.0,22.0,30.16,NW,316,0.0,-999.0,65,-99.99,,,-99.99,,2013-01-09 02:12:00,
2013-01-08 21:22:00,31.0,22.0,30.16,NW,316,0.0,-999.0,69,-99.99,,,-99.99,,2013-01-09 02:22:00,
2013-01-08 21:33:00,30.0,21.0,30.16,NW,316,0.0,-999.0,70,-99.99,,,-99.99,,2013-01-09 02:33:00,
2013-01-08 21:43:00,30.0,21.0,30.16,NW,316,0.0,-999.0,70,-99.99,,,-99.99,,2013-01-09 02:43:00,
2013-01-08 21:53:00,29.0,21.0,30.16,NW,316,0.0,-999.0,72,-99.99,,,-99.99,,2013-01-09 02:53:00,
2013-01-08 22:03:00,29.0,21.0,30.16,NW,316,0.0,-999.0,73,-99.99,,,-99.99,,2013-01-09 03:03:00,
2013-01-08 22:12:00,29.0,21.0,30.16,NW,316,0.0,-999.0,73,-99.99,,,-99.99,,2013-01-09 03:12:00,
2013-01-08 22:22:00,29.0,21.0,30.18,NW,316,0.0,-999.0,73,-99.99,,,-99.99,,2013-01-09 03:22:00,
2013-01-08 22:33:00,28.0,21.0,30.18,NW,316,0.0,-999.0,74,-99.99,,,-99.99,,2013-01-09 03:33:00,
2013-01-08 22:43:00,28.0,21.0,30.18,NW,316,0.0,-999.0,74,-99.99,,,-99.99,,2013-01-09 03:43:00,
2013-01-08 22:53:00,28.0,21.0,30.19,NW,316,0.0,-999.0,75,-99.99,,,-99.99,,2013-01-09 03:53:00,
2013-01-08 23:02:00,28.0,22.0,30.19,NW,316,0.0,-999.0,77,-99.99,,,-99.99,,2013-01-09 04:02:00,
2013-01-08 23:12:00,28.0,22.0,30.19,NW,316,0.0,-999.0,77,-99.99,,,-99.99,,2013-01-09 04:12:00,
2013-01-08 23:22:00,28.0,22.0,30.19,NW,316,0.0,-999.0,79,-99.99,,,-99.99,,2013-01-09 04:22:00,
2013-01-08 23:33:00,28.0,23.0,30.19,NW,316,0.0,-999.0,80,-99.99,,,-99.99,,2013-01-09 04:33:00,
2013-01-08 23:42:00,28.0,23.0,30.19,NW,325,0.0,-999.0,81,-99.99,,,-99.99,,2013-01-09 04:42:00,
2013-01-08 23:52:00,28.0,23.0,30.19,NW,325,0.0,-999.0,81,-99.99,,,-99.99,,2013-01-09 04:52:00,